N5CNB Weather Reports


Display with metric or nautical units.
time (UTC)temp
F
wind
direction
speed
MPH
gust
MPH
rain 1hr
in
rain 24hr
in
rain mn
in
humidity
%
barometer
mb
20260906173029 92 281 2.0 7.0 0.00 0.00 0.00 61 1014.5
20260906171536 94 284 2.0 6.0 0.00 0.00 0.00 61 1015.0
20260906170020 91 64 2.0 10.0 0.00 0.00 0.00 60 1015.1
20260906164524 90 84 1.0 4.0 0.00 0.00 0.00 63 1015.1
20260906163028 90 158 2.0 9.0 0.00 0.00 0.00 64 1015.2
20260906161532 91 115 2.0 4.0 0.00 0.00 0.00 67 1015.2
20260906160030 87 60 0.0 3.0 0.00 0.00 0.00 73 1015.2
20260906154518 89 49 0.0 3.0 0.00 0.00 0.00 76 1015.2
20260906153028 86 119 2.0 7.0 0.00 0.00 0.00 77 1015.2
20260906151528 85 131 2.0 5.0 0.00 0.00 0.00 82 1015.0
20260906150032 83 127 0.0 2.0 0.00 0.00 0.00 84 1015.0
20260906144536 82 140 0.0 3.0 0.00 0.00 0.00 87 1015.1
20260906143019 81 105 0.0 2.0 0.00 0.00 0.00 88 1015.0
20260906141526 80 71 0.0 2.0 0.00 0.00 0.00 89 1015.0
20260906140012 80 145 0.0 1.0 0.00 0.00 0.00 90 1015.0
20260906134510 79 102 1.0 2.0 0.00 0.00 0.00 91 1014.9
20260906133016 78 124 0.0 0.0 0.00 0.00 0.00 92 1014.8
20260906131520 78 27 0.0 0.0 0.00 0.00 0.00 92 1014.6
20260906130029 78 27 0.0 0.0 0.00 0.00 0.00 92 1014.4
20260906124508 77 347 0.0 0.0 0.00 0.01 0.00 92 1014.2
20260906123016 77 61 0.0 0.0 0.00 0.01 0.00 92 1014.1
20260906121527 76 56 0.0 0.0 0.00 0.01 0.00 92 1013.8
20260906120023 76 250 0.0 0.0 0.00 0.01 0.00 92 1013.4
20260906114541 76 250 0.0 0.0 0.00 0.01 0.00 91 1013.1
20260906113012 76 250 0.0 0.0 0.00 0.01 0.00 91 1013.0
20260906111522 76 250 0.0 0.0 0.00 0.01 0.00 91 1013.0
20260906110022 76 250 0.0 0.0 0.00 0.01 0.00 91 1012.9
20260906104528 77 250 0.0 0.0 0.00 0.01 0.00 91 1012.9
20260906103032 77 250 0.0 0.0 0.00 0.01 0.00 91 1012.8
20260906101513 77 250 0.0 0.0 0.00 0.01 0.00 91 1012.8
20260906100020 77 250 0.0 0.0 0.00 0.01 0.00 91 1012.7
20260906094524 77 250 0.0 0.0 0.00 0.01 0.00 91 1012.7
20260906093029 77 250 0.0 0.0 0.00 0.01 0.00 90 1012.5
20260906091535 77 250 0.0 0.0 0.00 0.01 0.00 90 1012.4
20260906090017 78 250 0.0 0.0 0.00 0.01 0.00 90 1012.3
20260906084527 78 250 0.0 0.0 0.00 0.01 0.00 89 1012.5
20260906083027 78 250 0.0 0.0 0.00 0.01 0.00 89 1012.5
20260906081539 78 250 0.0 0.0 0.00 0.01 0.00 89 1012.8
20260906080035 78 250 0.0 0.0 0.00 0.01 0.00 88 1012.8
20260906074516 79 250 0.0 0.0 0.00 0.01 0.00 88 1012.9
20260906073023 79 250 0.0 0.0 0.00 0.01 0.00 88 1012.9
20260906071531 79 246 0.0 2.0 0.00 0.01 0.00 88 1013.1
20260906070031 79 235 0.0 0.0 0.00 0.01 0.00 88 1013.2
20260906064531 79 235 0.0 0.0 0.00 0.01 0.00 88 1013.3
20260906063018 79 214 0.0 1.0 0.00 0.01 0.00 88 1013.4
20260906061527 79 200 0.0 2.0 0.00 0.01 0.00 88 1013.4
20260906060036 78 271 0.0 0.0 0.00 0.01 0.00 88 1013.3
20260906054532 78 254 0.0 0.0 0.00 0.01 0.00 87 1013.3
20260906053035 78 169 0.0 0.0 0.00 0.01 0.00 86 1013.2
20260906051519 79 169 0.0 0.0 0.00 0.01 0.00 85 1013.3
20260906050028 79 155 0.0 0.0 0.00 0.01 0.00 85 1013.6
20260906044532 79 155 0.0 0.0 0.00 0.01 0.01 84 1013.8
20260906043013 79 211 0.0 0.0 0.00 0.01 0.01 83 1013.6
20260906041523 79 222 0.0 0.0 0.00 0.01 0.01 82 1013.7
20260906040034 79 221 0.0 2.0 0.00 0.01 0.01 81 1013.6
20260906034533 80 169 1.0 4.0 0.00 0.01 0.01 80 1013.5
20260906033031 80 215 0.0 6.0 0.00 0.01 0.01 79 1013.6
20260906031528 80 105 1.0 7.0 0.00 0.01 0.01 79 1013.3
20260906030018 80 82 2.0 6.0 0.00 0.01 0.01 78 1013.2
20260906024528 81 72 1.0 3.0 0.00 0.01 0.01 78 1013.0
20260906023036 81 84 1.0 5.0 0.00 0.01 0.01 77 1012.8
20260906021533 82 76 2.0 4.0 0.00 0.01 0.01 77 1012.7
20260906020016 82 72 2.0 4.0 0.00 0.01 0.01 76 1012.2
20260906014525 83 74 4.0 6.0 0.00 0.01 0.01 75 1012.1
20260906013024 83 101 3.0 7.0 0.00 0.01 0.01 74 1011.8
20260906011532 84 100 6.0 11.0 0.00 0.01 0.01 74 1011.9
20260906010034 85 88 5.0 10.0 0.00 0.01 0.01 73 1011.8
20260906004513 86 92 3.0 7.0 0.00 0.01 0.01 71 1011.9
20260906003024 87 85 7.0 13.0 0.00 0.01 0.01 69 1011.9
20260906001536 88 116 3.0 6.0 0.00 0.01 0.01 67 1011.9
20260906000029 88 89 2.0 7.0 0.00 0.01 0.01 66 1011.9
20260905234533 89 143 1.0 6.0 0.00 0.01 0.01 65 1011.7
20260905233018 90 183 5.0 9.0 0.00 0.01 0.01 64 1011.7
20260905231532 91 146 3.0 12.0 0.00 0.01 0.01 61 1011.5
20260905230030 93 73 7.0 12.0 0.00 0.01 0.01 59 1011.6
20260905224531 93 143 5.0 10.0 0.00 0.01 0.01 56 1011.3
20260905223032 95 75 2.0 4.0 0.00 0.01 0.01 51 1011.2
20260905221520 96 196 2.0 6.0 0.00 0.01 0.01 50 1011.2
20260905220030 95 160 5.0 7.0 0.00 0.01 0.01 49 1011.1
20260905214532 95 111 2.0 5.0 0.00 0.01 0.01 51 1011.5
20260905213035 94 122 2.0 7.0 0.00 0.01 0.01 53 1011.7
20260905211535 93 139 5.0 9.0 0.00 0.01 0.01 54 1011.7
20260905210019 93 110 5.0 13.0 0.00 0.01 0.01 56 1011.8
20260905204527 93 103 4.0 9.0 0.00 0.01 0.01 60 1012.0
20260905203031 94 94 2.0 6.0 0.00 0.01 0.01 57 1012.1
20260905201534 96 87 1.0 6.0 0.00 0.02 0.01 56 1012.3
20260905200006 95 165 3.0 6.0 0.00 0.02 0.01 55 1012.7
20260905194507 94 240 5.0 7.0 0.00 0.03 0.01 56 1012.9
20260905193004 93 245 1.0 4.0 0.00 0.07 0.01 63 1013.2
20260905191506 91 256 0.0 3.0 0.00 0.16 0.01 58 1013.3
20260905190019 89 237 0.0 2.0 0.00 0.21 0.01 63 1013.6
20260905184512 88 91 1.0 7.0 0.00 0.21 0.01 65 1013.7
20260905183013 87 129 4.0 8.0 0.00 0.21 0.01 65 1013.9
20260905181506 87 89 5.0 12.0 0.00 0.21 0.01 71 1014.1
20260905180011 92 98 11.0 16.0 0.00 0.21 0.01 61 1014.6
20260905174510 97 248 0.0 3.0 0.00 0.21 0.01 55 1014.5